Погода в Магнитогорске

Погода в Магнитогорске : погода сейчас, прогноз погоды и архив. Всё, что Вы хотите узнать о погоде в Магнитогорске!

Хотите узнать прогноз погоды в Магнитогорске? Тогда Вам сюда: Погода в Магнитогорске

Поиск расширенной информации на нашем сайте:

Другие новости

Новости СМИ2

Главная страница сайта

Новости сайта

03.07.2017

Напоминаем, что на нашем специализированном сайте Метеоцентр.Азия вы можете получить высокодетализированные автоматические прогнозы погоды по пунктам России, СНГ и мира в авиационном формате (включающие направление и скорость ветра, видимость, явления погоды, количество и форму облачности, нижнюю и верхнюю границу облачности).

Рекомендуем: Строительные компании проектно Строительные.

Погода в Магнитогорске - сегодня

Время (UTC), дата Ветер
(°,м/с) 
Видим.   Явления Облачность Т
(°С)
Тd
(°С)
f(%) Тe
(°С)
Pmin
(гПа)
dP
(гПа)
Po
(мм)
O2
(г/м3)
Тmin Tmax R s Состояние
почвы
12 18.10.17 320 (СЗ) 7-13{13}  20000 м    8/8 600 м 
[Sc]
+7.7 +0.2 59 +5  1004.2  719  282           
15 18.10.17 330 (СЗ) 4{13}  10 км    3/3 600 м 
[Sc]
+3.4 -1.6 70 +1  1006.5  1.4  720  287    +12.1       
18 18.10.17 280 (З) 10 км    ясно 
-1.4 -3.4 86 -2  1008.2  0.8  721  292           
21 18.10.17 210 (ЮЗ) 10 км    ясно 
-1.6 -3.1 89 -1  1007.1  -1  720  292           
00 19.10.17 230 (ЮЗ) 10 км    6/6 600 м 
[Sc]
+3.6 +0.7 81 +2  1005.8  -0.4  720  286           
03 19.10.17 190 (Ю) 20000 м    10/10 600 м 
[Sc]
+3.4 +1.3 86 +3  1005  -0.8  719  286  -3.3        сухая 
06 19.10.17 240 (ЮЗ) 20000 м    9/0 средняя 
[Ac trans]
+7.4 +3.1 74 +6  1004.2  0.1  719  281           
09 19.10.17 250 (З) 5{10}  20000 м    4/4 600 м 
[Sc]
+11.1 +4 62 +10  1003.3  -0.3  719  278           
12 19.10.17 250 (З) 7-11{12}  20000 м    9/9 600 м 
[Sc]
+9.5 +4.2 69 +8  1004  0.5  719  279           
15 19.10.17 220 (ЮЗ) 4{11}  10 км  {дождь}  8/8 600 м 
[Sc]
+7.7 +5.7 87 +6  1003.6  -0.7  719  281    +11.2  0.0     
18 19.10.17 280 (З) 4{13}  10 км  {дождь}  8/0 средняя 
[Ac trans]
+7.2 +2.2 70 +6  1005.5  1.7  720  282           
21 19.10.17 270 (З) 4{10}  10 км    ясно 
+4.4 -1.4 66 +3  1007.2  1.1  721  286           
00 20.10.17 250 (З) 10 км    ясно 
+2.3 -2.1 73 +1  1008.7  722  288           
03 20.10.17 240 (ЮЗ) 20000 м    3/3 600 м 
[Sc]
+1.7 -2 76 1009.4  0.6  722  289  +1.4    0.3    замёрзшая 
06 20.10.17 260 (З) 6{11}  20000 м    3/0 средняя 
[Ac trans]
+5.8 -2.7 54 +3  1009.7  0.9  723  285           
09 20.10.17 290 (З) 4{11}  20000 м    8/8 600 м 
[Sc]
+5 -3.8 53 +3  1010.5  0.7  723  286           
12 20.10.17 280 (З) 20000 м    10/10 600 м 
[Sc]
+4.8 -5.2 48 +3  1011.4  0.8  724  287           
15 20.10.17 270 (З) 4{10}  10 км    8/8 600 м 
[Sc]
+3.5 -5 54 +2  1011.5  -0.1  724  288    +5.9       
18 20.10.17 280 (З) 10 км    6/6 600 м 
[Sc]
+2.7 -3.1 66 +1  1011.3  -0.3  723  289           
21 20.10.17 270 (З) 10 км    3/3 600 м 
[Sc]
+1.5 -6.1 57 1011.9  0.4  724  291           
00 21.10.17 290 (З) 10 км    4/4 600 м 
[Sc]
+0.7 -7.7 53 -2  1012.1  724  292           
03 21.10.17 330 (СЗ) 20000 м    8/8 600 м 
[Sc]
-1.5 -10.2 51 -4  1013.4  0.9  724  294  -1.5        сухая 
06 21.10.17 330 (СЗ) 20000 м    9/9 600 м 
[Sc]
-1.3 -11 48 -4  1014  0.5  725  294  -1.6         
09 21.10.17 340 (С) 20000 м    9/9 600 м 
[Sc]
+0.5 -11.2 41 -1  1013.2  -0.5  725  292           
12 21.10.17 340 (С) 20000 м    9/9 600 м 
[Sc]
-0.3 -10.1 48 -2  1013.4  0.1  725  293           
Время (UTC), дата Ветер
(°,м/с) 
Видим.   Явления Облачность Т
(°С)
Тd
(°С)
f(%) Тe
(°С)
Pmin
(гПа)
dP
(гПа)
Po
(мм)
O2
(г/м3)
Тmin Tmax R s Состояние
почвы

Для получения пояснительной информации подведите курсор к названию столбца.

ПОГОДА в Магнитогорске - архив

Всё, что Вы хотите узнать о погоде в Магнитогорске - удобно и подробно!

Выберите нужную дату (начиная с 1 января 2015* года) и нажмите кнопку "Найти".
Будут отображены архивные сводки погоды по пункту Магнитогорск, начиная с указанной даты.


Отображать данные в формате CSV (для использования в таблицах Excel)


Внимание! Наш архив погоды предназначен исключительно для личного некоммерческого использования в познавательных целях. Если Вам необходимы официальные справки о состоянии погоды (для производственных, юридических, коммерческих и т.п. целей), обращайтесь в органы Росгидромета.

*Примечание: данная дата относится к архиву по метеостанциям СССР (Россия, СНГ, Балтия).
Архив по метеостанциям Зарубежной Европы и Азии (кроме Китая) хранится 10 дней, по другим регионам земного шара (Китай, Африка, Америка, Австралия, Океания) - 1 день.

Магнитогорск - район местоположения метеостанции


Название, широта, долгота, высота метеостанции:
Магнитогорск 53.3°ш. 59.1°д. 384 м над ур. моря [Российская Федерация]

Дополнительная информация

В oтличие oт бoльшинства пoгoдных сайтoв мы публикуем пoдрoбную метеoинфoрмацию в детальнoм прoфессиoнальнoм фoрмате.

Характеристики температуры и влажнoсти вoздуха измеряются на высoте 2 м в тени вдали oт зданий и деревьев.
Скoрoсть ветра измеряется на высoте 10 м (на урoвне рoста челoвека скoрoсть ветра ниже в 1.5-2 раза). Если метеoстанция нахoдится в гoрoде или в лесу, тo скoрoсть ветра занижена на 2-4 м/с пo сравнению с oткрытым местoм. Скoрoсть ветра над акватoриями крупных рек и oзёр, а также на вершинах хoлмoв на 2-5 м/с выше, чем в oбычных услoвиях.
Атмoсфернoе давление в разных тoчках местнoсти мoжет значительнo oтличаться oт давления на метеoстанции, в зависимoсти oт услoвий рельефа (при пoдъёме на 10 м давление пoнижается примернo на 1 мм рт.ст.).